User: anonymous   Login
Location: Unspecified
(0.0000°N, 0.0000°E)
Time: 13:57:32
(UTC+02:00)
Language:

ARIANE 5 R/B - Orbit

View from above orbital plane
View from above orbital plane
View from above satellite
View from above satellite

Ground track
Ground track

The orbit data is extracted from the following two-line orbital elements,

1 29646U 06054D   17234.52390684 +.00005349 +00000-0 +96314-3 0  9993
2 29646 002.7706 295.9978 7101056 018.4197 357.8272 02.51992167093402
Epoch (UTC): 22 August 2017 12:34:25
Eccentricity: 0.7101056
inclination: 2.7706°
perigee height: 234 km
apogee height: 32631 km
right ascension of ascending node: 295.9978°
argument of perigee: 18.4197°
revolutions per day: 2.51992167
mean anomaly at epoch: 357.8272°
orbit number at epoch: 9340

The dashed part of the orbit path shows where the satellite is in the earth's shadow,  

DLR